N482VX KLAX-KPHX

Flight info

Callsign N482VX
Flight time 0h 56m
Altitude 41000
Route DOTSS2 CNERY BLH HYDRR1
Aircraft C700/M-SBDGHM1RWXY/LB2

Departure

Time 2026-04-23 00:07
Airport Los Angeles International Airport (KLAX)

Arrival

Time 2026-04-23 01:04
Airport Phoenix Sky Harbor International Airport (KPHX)
Time Latitude Longitude Altitude Speed Heading
2026-04-22 23:31 33.93376 -118.39916 110 ft 0 kts 23°
2026-04-22 23:46 33.93383 -118.39912 102 ft 0 kts 21°
2026-04-22 23:46 33.93388 -118.39910 102 ft 3 kts 20°
2026-04-22 23:48 33.93390 -118.39909 102 ft 2 kts 19°
2026-04-22 23:48 33.93396 -118.39907 102 ft 0 kts 18°
2026-04-22 23:49 33.93417 -118.39899 103 ft 0 kts 15°
2026-04-22 23:51 33.93418 -118.39899 103 ft 0 kts 15°
2026-04-22 23:52 33.93420 -118.39899 103 ft 0 kts 14°
2026-04-22 23:52 33.93421 -118.39898 103 ft 0 kts 13°
2026-04-22 23:53 33.93376 -118.39916 102 ft 0 kts 23°
2026-04-22 23:59 33.93377 -118.39915 102 ft 0 kts 30°
2026-04-23 00:00 33.93377 -118.39909 102 ft 0 kts 83°
2026-04-23 00:00 33.93377 -118.39905 102 ft 3 kts 90°
2026-04-23 00:00 33.93376 -118.39848 102 ft 5 kts 79°
2026-04-23 00:01 33.93388 -118.39819 102 ft 5 kts 50°
2026-04-23 00:01 33.93406 -118.39814 103 ft 3 kts
2026-04-23 00:01 33.93407 -118.39814 103 ft 2 kts
2026-04-23 00:02 33.93450 -118.39810 103 ft 9 kts 28°
2026-04-23 00:02 33.93463 -118.39744 103 ft 9 kts 85°
2026-04-23 00:02 33.93472 -118.39651 103 ft 13 kts 82°
2026-04-23 00:02 33.93485 -118.39523 103 ft 18 kts 83°
2026-04-23 00:03 33.93502 -118.39355 103 ft 23 kts 83°
2026-04-23 00:03 33.93520 -118.39180 102 ft 22 kts 82°
2026-04-23 00:03 33.93541 -118.38980 102 ft 26 kts 83°
2026-04-23 00:03 33.93561 -118.38773 102 ft 24 kts 83°
2026-04-23 00:04 33.93583 -118.38562 102 ft 22 kts 82°
2026-04-23 00:04 33.93604 -118.38360 102 ft 19 kts 82°
2026-04-23 00:04 33.93622 -118.38292 102 ft 0 kts 39°
2026-04-23 00:05 33.93625 -118.38289 102 ft 0 kts 36°
2026-04-23 00:06 33.93639 -118.38282 102 ft 4 kts 18°
2026-04-23 00:06 33.93676 -118.38281 103 ft 7 kts 353°
2026-04-23 00:06 33.93728 -118.38307 104 ft 8 kts 307°
2026-04-23 00:06 33.93723 -118.38400 104 ft 30 kts 258°
2026-04-23 00:07 33.93664 -118.38978 103 ft 106 kts 261°
2026-04-23 00:07 33.93678 -118.40093 280 ft 153 kts 272°
2026-04-23 00:07 33.93760 -118.41444 1056 ft 172 kts 270°
2026-04-23 00:07 33.93857 -118.42945 1988 ft 183 kts 279°
2026-04-23 00:08 33.94215 -118.44449 3124 ft 196 kts 286°
2026-04-23 00:08 33.94447 -118.46176 3225 ft 214 kts 270°
2026-04-23 00:08 33.94351 -118.47913 3507 ft 206 kts 266°
2026-04-23 00:08 33.94272 -118.49609 4698 ft 203 kts 270°
2026-04-23 00:09 33.94187 -118.51414 5365 ft 218 kts 265°
2026-04-23 00:09 33.94019 -118.53204 6614 ft 220 kts 267°
2026-04-23 00:09 33.93891 -118.55142 7433 ft 245 kts 268°
2026-04-23 00:09 33.93666 -118.57278 8322 ft 265 kts 257°
2026-04-23 00:10 33.92742 -118.59161 9799 ft 269 kts 229°
2026-04-23 00:10 33.91115 -118.60395 10840 ft 296 kts 203°
2026-04-23 00:10 33.88952 -118.60507 11731 ft 329 kts 173°
2026-04-23 00:10 33.86740 -118.59624 12966 ft 342 kts 163°
2026-04-23 00:11 33.84528 -118.58459 14074 ft 352 kts 162°
2026-04-23 00:11 33.82249 -118.57337 15142 ft 355 kts 166°
2026-04-23 00:11 33.79901 -118.56391 16255 ft 358 kts 169°
2026-04-23 00:11 33.77492 -118.55443 17112 ft 374 kts 168°
2026-04-23 00:12 33.74946 -118.54241 17152 ft 414 kts 159°
2026-04-23 00:12 33.72462 -118.52337 17160 ft 431 kts 148°
2026-04-23 00:12 33.70260 -118.49843 17282 ft 438 kts 134°
2026-04-23 00:12 33.68530 -118.46945 18987 ft 416 kts 125°
2026-04-23 00:13 33.67280 -118.43870 20575 ft 410 kts 115°
2026-04-23 00:13 33.66318 -118.40638 21284 ft 420 kts 112°
2026-04-23 00:13 33.65343 -118.37261 22152 ft 425 kts 112°
2026-04-23 00:13 33.64641 -118.33837 22951 ft 434 kts 100°
2026-04-23 00:14 33.64452 -118.30203 23767 ft 440 kts 91°
2026-04-23 00:14 33.64469 -118.26507 24455 ft 445 kts 91°
2026-04-23 00:14 33.64469 -118.22770 25155 ft 450 kts 91°
2026-04-23 00:14 33.64464 -118.18999 25819 ft 455 kts 90°
2026-04-23 00:15 33.64466 -118.15187 26453 ft 460 kts 90°
2026-04-23 00:15 33.64468 -118.11328 27097 ft 464 kts 90°
2026-04-23 00:15 33.64464 -118.07440 27736 ft 469 kts 90°
2026-04-23 00:15 33.64460 -118.03503 28395 ft 474 kts 90°
2026-04-23 00:16 33.64455 -117.99535 29026 ft 478 kts 90°
2026-04-23 00:16 33.64450 -117.95515 29659 ft 483 kts 90°
2026-04-23 00:16 33.64442 -117.91457 30274 ft 488 kts 90°
2026-04-23 00:16 33.64432 -117.87362 30759 ft 494 kts 90°
2026-04-23 00:17 33.64421 -117.83204 31213 ft 500 kts 90°
2026-04-23 00:17 33.64125 -117.79034 31647 ft 504 kts 101°
2026-04-23 00:17 33.63292 -117.74928 32057 ft 508 kts 109°
2026-04-23 00:17 33.62273 -117.70856 32509 ft 512 kts 109°
2026-04-23 00:18 33.61258 -117.66731 32929 ft 518 kts 109°
2026-04-23 00:18 33.60242 -117.62567 33383 ft 522 kts 109°
2026-04-23 00:18 33.59210 -117.58388 33931 ft 524 kts 110°
2026-04-23 00:18 33.58164 -117.54184 34401 ft 526 kts 110°
2026-04-23 00:19 33.57122 -117.49984 34887 ft 526 kts 110°
2026-04-23 00:19 33.56076 -117.45752 35103 ft 535 kts 110°
2026-04-23 00:19 33.55000 -117.41439 35108 ft 547 kts 110°
2026-04-23 00:19 33.53910 -117.37071 35107 ft 559 kts 110°
2026-04-23 00:20 33.52791 -117.32570 35114 ft 566 kts 110°
2026-04-23 00:20 33.50778 -117.23411 35108 ft 571 kts 101°
2026-04-23 00:21 33.50369 -117.13941 35100 ft 569 kts 91°
2026-04-23 00:21 33.50229 -117.04431 35095 ft 573 kts 91°
2026-04-23 00:22 33.50101 -116.94865 35094 ft 576 kts 91°
2026-04-23 00:22 33.49950 -116.85266 35087 ft 575 kts 91°
2026-04-23 00:23 33.49804 -116.75679 35070 ft 574 kts 91°
2026-04-23 00:23 33.50268 -116.66138 35046 ft 573 kts 83°
2026-04-23 00:24 33.51036 -116.56643 35025 ft 573 kts 87°
2026-04-23 00:24 33.51368 -116.47116 35018 ft 573 kts 85°
2026-04-23 00:25 33.52028 -116.37636 35010 ft 575 kts 86°
2026-04-23 00:25 33.52432 -116.28073 35010 ft 575 kts 86°
2026-04-23 00:26 33.53014 -116.18464 35002 ft 574 kts 86°
2026-04-23 00:26 33.53455 -116.08979 35001 ft 574 kts 86°
2026-04-23 00:27 33.53977 -115.99435 35008 ft 574 kts 86°
2026-04-23 00:27 33.54437 -115.89874 35010 ft 574 kts 86°
2026-04-23 00:28 33.54928 -115.80258 34992 ft 575 kts 86°
2026-04-23 00:28 33.55381 -115.70758 34993 ft 575 kts 86°
2026-04-23 00:29 33.55851 -115.61190 34986 ft 575 kts 86°
2026-04-23 00:29 33.56298 -115.51611 34982 ft 575 kts 86°
2026-04-23 00:30 33.56743 -115.42037 34979 ft 575 kts 86°
2026-04-23 00:30 33.57181 -115.32459 34978 ft 575 kts 86°
2026-04-23 00:31 33.57610 -115.22890 34966 ft 575 kts 86°
2026-04-23 00:31 33.58033 -115.13336 34958 ft 573 kts 87°
2026-04-23 00:32 33.58377 -115.05415 34954 ft 571 kts 87°
2026-04-23 00:32 33.58785 -114.95902 34951 ft 572 kts 87°
2026-04-23 00:33 33.59186 -114.86364 34944 ft 574 kts 87°
2026-04-23 00:33 33.59372 -114.76785 34934 ft 575 kts 96°
2026-04-23 00:34 33.57914 -114.67401 34649 ft 572 kts 106°
2026-04-23 00:34 33.57011 -114.62758 33909 ft 568 kts 105°
2026-04-23 00:34 33.56129 -114.58177 33130 ft 558 kts 105°
2026-04-23 00:34 33.55256 -114.53692 32400 ft 546 kts 105°
2026-04-23 00:35 33.54404 -114.49364 31703 ft 535 kts 105°
2026-04-23 00:35 33.53557 -114.45052 30995 ft 527 kts 105°
2026-04-23 00:35 33.52728 -114.40802 30308 ft 522 kts 105°
2026-04-23 00:35 33.51895 -114.36564 29567 ft 519 kts 105°
2026-04-23 00:36 33.51068 -114.32373 28887 ft 515 kts 105°
2026-04-23 00:36 33.50247 -114.28215 28211 ft 511 kts 105°
2026-04-23 00:36 33.49429 -114.24073 27542 ft 508 kts 105°
2026-04-23 00:36 33.48615 -114.19961 26872 ft 503 kts 105°
2026-04-23 00:37 33.47818 -114.15935 26214 ft 490 kts 105°
2026-04-23 00:37 33.47039 -114.12014 25580 ft 478 kts 106°
2026-04-23 00:37 33.46273 -114.08173 25000 ft 467 kts 106°
2026-04-23 00:37 33.45537 -114.04478 24952 ft 446 kts 106°
2026-04-23 00:38 33.44816 -114.00898 24943 ft 446 kts 106°
2026-04-23 00:38 33.44076 -113.97259 24947 ft 462 kts 106°
2026-04-23 00:38 33.43328 -113.93525 24959 ft 460 kts 106°
2026-04-23 00:38 33.42589 -113.89808 24970 ft 458 kts 106°
2026-04-23 00:39 33.41848 -113.86107 24982 ft 458 kts 106°
2026-04-23 00:39 33.41097 -113.82399 24905 ft 460 kts 106°
2026-04-23 00:39 33.40344 -113.78674 24685 ft 460 kts 106°
2026-04-23 00:39 33.39600 -113.74965 24411 ft 455 kts 107°
2026-04-23 00:40 33.38861 -113.71303 24124 ft 452 kts 107°
2026-04-23 00:40 33.38120 -113.67661 23830 ft 448 kts 107°
2026-04-23 00:40 33.37386 -113.64047 23532 ft 446 kts 107°
2026-04-23 00:40 33.36659 -113.60457 23197 ft 443 kts 107°
2026-04-23 00:41 33.35934 -113.56895 22893 ft 439 kts 107°
2026-04-23 00:41 33.35211 -113.53350 22592 ft 438 kts 107°
2026-04-23 00:41 33.34488 -113.49814 22307 ft 437 kts 107°
2026-04-23 00:41 33.33768 -113.46285 22006 ft 436 kts 106°
2026-04-23 00:42 33.33153 -113.42747 21820 ft 434 kts 104°
2026-04-23 00:42 33.32554 -113.39214 21556 ft 434 kts 104°
2026-04-23 00:42 33.31935 -113.35687 21265 ft 433 kts 104°
2026-04-23 00:42 33.31321 -113.32174 20964 ft 430 kts 104°
2026-04-23 00:43 33.30720 -113.28685 20680 ft 427 kts 104°
2026-04-23 00:43 33.30122 -113.25221 20402 ft 424 kts 104°
2026-04-23 00:43 33.29553 -113.21771 20122 ft 422 kts 102°
2026-04-23 00:43 33.29073 -113.18314 19839 ft 420 kts 101°
2026-04-23 00:44 33.28580 -113.14883 19561 ft 418 kts 102°
2026-04-23 00:44 33.28077 -113.11465 19288 ft 408 kts 102°
2026-04-23 00:44 33.27616 -113.08234 19027 ft 397 kts 101°
2026-04-23 00:44 33.27474 -113.04968 18760 ft 391 kts 88°
2026-04-23 00:45 33.27584 -113.01732 18511 ft 390 kts 89°
2026-04-23 00:45 33.27652 -112.98490 18296 ft 391 kts 89°
2026-04-23 00:45 33.27720 -112.95234 18045 ft 392 kts 89°
2026-04-23 00:45 33.27809 -112.91978 17788 ft 391 kts 89°
2026-04-23 00:46 33.27895 -112.88742 17532 ft 387 kts 89°
2026-04-23 00:46 33.27970 -112.85581 17283 ft 373 kts 89°
2026-04-23 00:46 33.28042 -112.82531 17036 ft 362 kts 88°
2026-04-23 00:46 33.28285 -112.79588 17002 ft 352 kts 83°
2026-04-23 00:47 33.28581 -112.76671 17001 ft 360 kts 83°
2026-04-23 00:47 33.28856 -112.73702 17006 ft 366 kts 84°
2026-04-23 00:47 33.29134 -112.70632 16847 ft 368 kts 84°
2026-04-23 00:47 33.29417 -112.67628 16504 ft 368 kts 84°
2026-04-23 00:48 33.29705 -112.64612 16126 ft 362 kts 84°
2026-04-23 00:48 33.29980 -112.61650 15745 ft 355 kts 84°
2026-04-23 00:48 33.30248 -112.58742 15373 ft 349 kts 84°
2026-04-23 00:48 33.30515 -112.55875 15007 ft 346 kts 84°
2026-04-23 00:49 33.30780 -112.53024 14639 ft 345 kts 84°
2026-04-23 00:49 33.31042 -112.50179 14281 ft 344 kts 84°
2026-04-23 00:49 33.31303 -112.47344 13923 ft 342 kts 84°
2026-04-23 00:49 33.31562 -112.44525 13544 ft 340 kts 84°
2026-04-23 00:50 33.31818 -112.41738 13178 ft 335 kts 84°
2026-04-23 00:50 33.32071 -112.38983 12824 ft 331 kts 84°
2026-04-23 00:50 33.32319 -112.36252 12474 ft 329 kts 85°
2026-04-23 00:50 33.32565 -112.33536 12123 ft 329 kts 85°
2026-04-23 00:51 33.32815 -112.30830 11783 ft 327 kts 85°
2026-04-23 00:51 33.33064 -112.28134 11438 ft 325 kts 85°
2026-04-23 00:51 33.33304 -112.25454 11095 ft 323 kts 85°
2026-04-23 00:51 33.33543 -112.22804 10764 ft 317 kts 85°
2026-04-23 00:52 33.33776 -112.20211 10450 ft 310 kts 85°
2026-04-23 00:52 33.34007 -112.17675 10209 ft 301 kts 85°
2026-04-23 00:52 33.34231 -112.15213 9929 ft 296 kts 85°
2026-04-23 00:52 33.34455 -112.12774 9542 ft 294 kts 85°
2026-04-23 00:53 33.34677 -112.10348 9152 ft 293 kts 85°
2026-04-23 00:53 33.34897 -112.07942 8822 ft 289 kts 85°
2026-04-23 00:53 33.35113 -112.05571 8516 ft 284 kts 85°
2026-04-23 00:53 33.35325 -112.03244 8228 ft 279 kts 85°
2026-04-23 00:54 33.35536 -112.00956 7937 ft 275 kts 85°
2026-04-23 00:54 33.35743 -111.98724 7652 ft 272 kts 85°
2026-04-23 00:54 33.35952 -111.96485 7370 ft 270 kts 85°
2026-04-23 00:54 33.36159 -111.94257 7091 ft 268 kts 85°
2026-04-23 00:55 33.36364 -111.92072 6994 ft 258 kts 85°
2026-04-23 00:55 33.36563 -111.89981 6990 ft 250 kts 85°
2026-04-23 00:55 33.36759 -111.87913 6758 ft 253 kts 85°
2026-04-23 00:55 33.36970 -111.85810 6479 ft 255 kts 84°
2026-04-23 00:56 33.37183 -111.83713 6285 ft 252 kts 84°
2026-04-23 00:56 33.37393 -111.81631 6013 ft 252 kts 84°
2026-04-23 00:56 33.37596 -111.79553 5767 ft 251 kts 84°
2026-04-23 00:56 33.37794 -111.77478 5509 ft 251 kts 84°
2026-04-23 00:57 33.37985 -111.75400 5276 ft 249 kts 84°
2026-04-23 00:57 33.38327 -111.73449 5113 ft 238 kts 63°
2026-04-23 00:57 33.39430 -111.72031 4761 ft 231 kts 24°
2026-04-23 00:57 33.40936 -111.71664 4422 ft 219 kts 348°
2026-04-23 00:58 33.42320 -111.72294 4081 ft 209 kts 324°
2026-04-23 00:58 33.43255 -111.73541 3683 ft 201 kts 288°
2026-04-23 00:58 33.43296 -111.75158 3325 ft 197 kts 253°
2026-04-23 00:58 33.42950 -111.76728 3026 ft 193 kts 265°
2026-04-23 00:59 33.42920 -111.78299 3010 ft 186 kts 266°
2026-04-23 00:59 33.42883 -111.79869 3012 ft 192 kts 267°
2026-04-23 00:59 33.42884 -111.81478 3015 ft 192 kts 270°
2026-04-23 00:59 33.42890 -111.83010 2996 ft 179 kts 268°
2026-04-23 01:00 33.42881 -111.84445 2988 ft 165 kts 270°
2026-04-23 01:00 33.42895 -111.85778 2985 ft 156 kts 268°
2026-04-23 01:00 33.42878 -111.87029 2975 ft 149 kts 269°
2026-04-23 01:00 33.42895 -111.88243 2984 ft 142 kts 268°
2026-04-23 01:01 33.42874 -111.89434 2844 ft 143 kts 271°
2026-04-23 01:01 33.42894 -111.90548 2671 ft 130 kts 271°
2026-04-23 01:01 33.42879 -111.91646 2506 ft 129 kts 270°
2026-04-23 01:01 33.42897 -111.92696 2338 ft 126 kts 268°
2026-04-23 01:02 33.42878 -111.93742 2187 ft 131 kts 269°
2026-04-23 01:02 33.42895 -111.94839 2015 ft 128 kts 267°
2026-04-23 01:02 33.42875 -111.95890 1857 ft 127 kts 270°
2026-04-23 01:02 33.42891 -111.96993 1688 ft 137 kts 268°
2026-04-23 01:03 33.42879 -111.98120 1509 ft 134 kts 270°
2026-04-23 01:03 33.42888 -111.99178 1288 ft 123 kts 271°
2026-04-23 01:03 33.42886 -112.00258 1151 ft 133 kts 269°
2026-04-23 01:03 33.42882 -112.01219 1125 ft 100 kts 270°
2026-04-23 01:04 33.42884 -112.01932 1122 ft 74 kts 270°
2026-04-23 01:04 33.42886 -112.02367 1119 ft 40 kts 271°
2026-04-23 01:04 33.42882 -112.02555 1116 ft 9 kts 266°
2026-04-23 01:05 33.42858 -112.02610 1114 ft 6 kts 172°
2026-04-23 01:05 33.42826 -112.02603 1117 ft 5 kts 176°
2026-04-23 01:05 33.42799 -112.02599 1122 ft 2 kts 159°
2026-04-23 01:05 33.42783 -112.02581 1123 ft 5 kts 121°
2026-04-23 01:06 33.42777 -112.02520 1123 ft 9 kts 86°
2026-04-23 01:06 33.42774 -112.02452 1123 ft 8 kts 107°
2026-04-23 01:06 33.42720 -112.02417 1124 ft 10 kts 170°
2026-04-23 01:06 33.42668 -112.02410 1122 ft 2 kts 116°
2026-04-23 01:07 33.42661 -112.02396 1119 ft 2 kts 118°
2026-04-23 01:07 33.42661 -112.02393 1119 ft 0 kts 90°
2026-04-23 01:07 33.42662 -112.02392 1119 ft 0 kts 73°